Weather History for KD50 - June, 2014

Change the Weather History Date:

Tuesday, June 10, 2014

  Actual Average (KISN) Record (KISN)
Temperature  
Mean Temperature 62 °F 62 °F  
Max Temperature 73 °F 75 °F 105 °F (1988)
Min Temperature 50 °F 48 °F 30 °F (1903)
Degree Days  
Heating Degree Days 4 5  
Month to date heating degree days 59  
Since 1 June heating degree days 59  
Since 1 July heating degree days 8933  
Cooling Degree Days 0 2  
Month to date cooling degree days 13  
Year to date cooling degree days 26  
Since 1 June cooling degree days 13  
Growing Degree Days 12 (Base 50)    
Moisture  
Dew Point 43 °F    
Average Humidity 59    
Maximum Humidity 100    
Minimum Humidity 23    
Precipitation  
Precipitation 0.00 in 0.07 in 1.49 in (1968)
Month to date precipitation 0.77  
Year to date precipitation 5.38  
Sea Level Pressure  
Sea Level Pressure 29.83 in    
Wind  
Wind Speed 9 mph (WNW)    
Max Wind Speed 20 mph    
Max Gust Speed 26 mph    
T = Trace of Precipitation, MM = Missing Value Source: NWS Daily Summary

Daily Weather History Graph

Daily Weather History Graph

Search for Another Location

Airport or City:

Trip Planner

Search our weather history database for the weather conditions in past years. The results will help you decide how hot, cold, wet, or windy it might be!

Date:

Astronomy

Jun. 10, 2014 Rise Set
Actual Time 5:49 AM CDT 9:56 PM CDT
Civil Twilight 5:07 AM CDT 10:38 PM CDT
Nautical Twilight 4:07 AM CDT 11:38 PM CDT
Astronomical Twilight 2:06 AM CDT 1:20 AM CDT
Moon 7:11 PM CDT (6/10) 4:11 AM CDT (6/10)
Length of Visible Light 17h 31m
Length of Day
16h 06m
Waxing Gibbous, 92% of the Moon is Illuminated
Jun 10
Waxing Gibbous
Jun 12
Full
Jun 19
Last Quarter
Jun 27
New
Jul 5
First Quarter

Hourly Weather History & Observations

Time (CDT) Temp. Dew Point Humidity Pressure Visibility Wind Dir Wind Speed Gust Speed Precip Events Conditions
12:15 AM 57.2 °F 55.4 °F 94% 29.76 in - NW 4.6 mph - N/A   Unknown
12:55 AM 53.6 °F 53.6 °F 100% 29.76 in - WSW 3.5 mph - N/A   Unknown
1:15 AM 55.4 °F 55.4 °F 100% 29.76 in - SSW 5.8 mph - N/A   Unknown
1:35 AM 53.6 °F 53.6 °F 100% 29.76 in - SSW 5.8 mph - N/A   Unknown
1:55 AM 53.6 °F 53.6 °F 100% 29.77 in - SW 6.9 mph - N/A   Unknown
2:15 AM 53.6 °F 53.6 °F 100% 29.78 in - West 4.6 mph - N/A   Unknown
2:35 AM 55.4 °F 53.6 °F 94% 29.78 in - West 9.2 mph - N/A   Unknown
2:55 AM 53.6 °F 53.6 °F 100% 29.79 in - West 8.1 mph - N/A   Unknown
3:15 AM 55.4 °F 51.8 °F 88% 29.79 in - West 6.9 mph - N/A   Unknown
3:35 AM 53.6 °F 51.8 °F 94% 29.79 in - West 8.1 mph - N/A   Unknown
3:55 AM 51.8 °F 51.8 °F 100% 29.80 in - West 9.2 mph - N/A   Unknown
4:15 AM 51.8 °F 51.8 °F 100% 29.81 in - West 11.5 mph - N/A   Unknown
4:35 AM 53.6 °F 50.0 °F 88% 29.82 in - WNW 12.7 mph - N/A   Unknown
4:55 AM 51.8 °F 51.8 °F 100% 29.83 in - WNW 12.7 mph - N/A   Unknown
5:15 AM 51.8 °F 51.8 °F 100% 29.84 in - West 10.4 mph - N/A   Unknown
5:35 AM 50.0 °F 50.0 °F 100% 29.84 in - WNW 12.7 mph - N/A   Unknown
5:55 AM 50.0 °F 48.2 °F 94% 29.85 in - WNW 10.4 mph - N/A   Unknown
6:15 AM 50.0 °F 48.2 °F 94% 29.86 in - WNW 9.2 mph - N/A   Unknown
6:35 AM 50.0 °F 48.2 °F 94% 29.86 in - NW 3.5 mph - N/A   Unknown
6:55 AM 50.0 °F 46.4 °F 87% 29.86 in - Calm Calm - N/A   Unknown
7:15 AM 51.8 °F 46.4 °F 82% 29.86 in - Calm Calm - N/A   Clear
7:35 AM 53.6 °F 46.4 °F 77% 29.87 in - Calm Calm - N/A   Clear
7:55 AM 53.6 °F 46.4 °F 77% 29.87 in - SW 3.5 mph - N/A   Clear
8:15 AM 55.4 °F 46.4 °F 72% 29.87 in - West 10.4 mph - N/A   Clear
8:55 AM 57.2 °F 46.4 °F 67% 29.87 in - WNW 13.8 mph - N/A   Clear
9:15 AM 57.2 °F 44.6 °F 63% 29.87 in - NW 15.0 mph - N/A   Clear
9:35 AM 59.0 °F 42.8 °F 55% 29.87 in - NW 16.1 mph - N/A   Clear
9:55 AM 60.8 °F 41.0 °F 48% 29.87 in - NW 19.6 mph 25.3 mph N/A   Clear
10:15 AM 60.8 °F 41.0 °F 48% 29.87 in - NW 19.6 mph - N/A   Clear
10:35 AM 62.6 °F 41.0 °F 45% 29.87 in - NW 18.4 mph 26.5 mph N/A   Clear
10:55 AM 62.6 °F 41.0 °F 45% 29.86 in - NW 18.4 mph 24.2 mph N/A   Clear
11:15 AM 62.6 °F 41.0 °F 45% 29.86 in - NW 19.6 mph 25.3 mph N/A   Clear
11:35 AM 64.4 °F 39.2 °F 40% 29.85 in - NW 17.3 mph 25.3 mph N/A   Clear
12:15 PM 66.2 °F 37.4 °F 35% 29.85 in - NW 18.4 mph 24.2 mph N/A   Clear
12:35 PM 68.0 °F 35.6 °F 30% 29.85 in - NW 17.3 mph 25.3 mph N/A   Clear
12:55 PM 68.0 °F 35.6 °F 30% 29.85 in - NNW 13.8 mph 23.0 mph N/A   Clear
1:15 PM 68.0 °F 35.6 °F 30% 29.85 in - NW 16.1 mph 24.2 mph N/A   Clear
1:35 PM 68.0 °F 35.6 °F 30% 29.85 in - NW 17.3 mph 23.0 mph N/A   Clear
2:15 PM 68.0 °F 33.8 °F 28% 29.84 in - NW 15.0 mph 18.4 mph N/A   Clear
2:35 PM 69.8 °F 35.6 °F 28% 29.84 in - WNW 15.0 mph 20.7 mph N/A   Clear
2:55 PM 71.6 °F 33.8 °F 25% 29.84 in - NW 11.5 mph 21.9 mph N/A   Clear
3:15 PM 71.6 °F 32.0 °F 23% 29.84 in - NNW 9.2 mph - N/A   Clear
3:35 PM 71.6 °F 32.0 °F 23% 29.83 in - NW 12.7 mph 19.6 mph N/A   Clear
4:15 PM 73.4 °F 33.8 °F 23% 29.83 in - NW 10.4 mph - N/A   Clear
4:35 PM 71.6 °F 33.8 °F 25% 29.84 in - NW 11.5 mph 23.0 mph N/A   Partly Cloudy
4:55 PM 69.8 °F 35.6 °F 28% 29.84 in - NW 13.8 mph 17.3 mph N/A   Scattered Clouds
5:15 PM 71.6 °F 35.6 °F 27% 29.84 in - NW 11.5 mph 17.3 mph N/A   Mostly Cloudy
5:35 PM 71.6 °F 35.6 °F 27% 29.84 in - NW 12.7 mph - N/A   Mostly Cloudy
5:55 PM 71.6 °F 35.6 °F 27% 29.83 in - NW 12.7 mph - N/A   Mostly Cloudy
6:15 PM 71.6 °F 35.6 °F 27% 29.83 in - WNW 8.1 mph - N/A   Partly Cloudy
6:35 PM 71.6 °F 35.6 °F 27% 29.83 in - NW 4.6 mph - N/A   Clear
6:55 PM 71.6 °F 35.6 °F 27% 29.83 in - West 10.4 mph - N/A   Partly Cloudy
7:15 PM 68.0 °F 35.6 °F 30% 29.83 in - WNW 9.2 mph - N/A   Partly Cloudy
7:35 PM 68.0 °F 37.4 °F 33% 29.83 in - NW 4.6 mph - N/A   Partly Cloudy
7:55 PM 71.6 °F 35.6 °F 27% 29.82 in - NNW 13.8 mph - N/A   Scattered Clouds
8:15 PM 69.8 °F 35.6 °F 28% 29.82 in - WNW 6.9 mph - N/A   Partly Cloudy
8:35 PM 69.8 °F 35.6 °F 28% 29.83 in - WNW 4.6 mph - N/A   Clear
8:55 PM 68.0 °F 41.0 °F 37% 29.83 in - NW 4.6 mph - N/A   Clear
9:15 PM 66.2 °F 42.8 °F 43% 29.83 in - NNW 3.5 mph - N/A   Clear
9:35 PM 64.4 °F 44.6 °F 49% 29.83 in - NNW 4.6 mph - N/A   Clear
10:15 PM 60.8 °F 46.4 °F 59% 29.83 in - Calm Calm - N/A   Clear
10:35 PM 59.0 °F 48.2 °F 67% 29.83 in - NNE 3.5 mph - N/A   Clear
10:55 PM 59.0 °F 46.4 °F 63% 29.84 in - Calm Calm - N/A   Clear
11:15 PM 59.0 °F 50.0 °F 72% 29.84 in - Calm Calm - N/A   Clear
11:35 PM 55.4 °F 48.2 °F 77% 29.83 in - Calm Calm - N/A   Clear
11:55 PM 55.4 °F 48.2 °F 77% 29.83 in - North 3.5 mph - N/A   Clear